EW3182 Weather Reports


Display with metric or nautical units.
time (UTC)temp
F
wind
direction
speed
MPH
gust
MPH
rain 1hr
in
rain 24hr
in
rain mn
in
humidity
%
barometer
mb
20260901191527 98 109 1.0 5.0 0.00 0.00 0.00 41 1013.0
20260901190030 97 288 0.0 6.0 0.00 0.00 0.00 41 1013.2
20260901184525 98 153 0.0 5.0 0.00 0.00 0.00 40 1013.5
20260901183021 98 113 0.0 5.0 0.00 0.00 0.00 42 1013.8
20260901181526 98 110 0.0 3.0 0.00 0.00 0.00 43 1014.0
20260901180020 98 113 0.0 2.0 0.00 0.00 0.00 44 1014.2
20260901174517 97 109 0.0 3.0 0.00 0.00 0.00 43 1014.5
20260901173014 97 257 0.0 3.0 0.00 0.00 0.00 45 1014.6
20260901171511 96 160 0.0 4.0 0.00 0.00 0.00 45 1014.9
20260901170007 96 98 0.0 2.0 0.00 0.00 0.00 47 1015.1
20260901164504 95 148 1.0 3.0 0.00 0.00 0.00 47 1015.3
20260901163102 94 212 0.0 5.0 0.00 0.00 0.00 50 1015.4
20260901161556 93 284 0.0 3.0 0.00 0.00 0.00 51 1015.3
20260901160057 92 204 0.0 7.0 0.00 0.00 0.00 53 1015.4
20260901154556 91 225 0.0 2.0 0.00 0.00 0.00 56 1015.3
20260901153050 90 245 0.0 2.0 0.00 0.00 0.00 56 1015.3
20260901151546 90 271 1.0 4.0 0.00 0.00 0.00 56 1015.2
20260901150042 88 285 0.0 3.0 0.00 0.00 0.00 60 1015.3
20260901144540 87 262 0.0 3.0 0.00 0.00 0.00 61 1015.5
20260901143042 87 155 0.0 2.0 0.00 0.00 0.00 62 1015.5
20260901141541 86 252 0.0 1.0 0.00 0.00 0.00 66 1015.5
20260901140032 85 240 0.0 2.0 0.00 0.00 0.00 67 1015.5
20260901134529 83 157 0.0 4.0 0.00 0.00 0.00 69 1015.5
20260901133027 81 264 0.0 3.0 0.00 0.00 0.00 72 1015.4
20260901131526 79 259 0.0 0.0 0.00 0.00 0.00 76 1015.5
20260901130022 77 269 0.0 0.0 0.00 0.00 0.00 78 1015.3
20260901124522 76 270 0.0 0.0 0.00 0.00 0.00 79 1015.1
20260901123023 0 0.0 0.0 0.00 0.00 0.00 1014.8
20260901121513 0 0.0 0.0 0.00 0.00 0.00 1014.7
20260901120011 0 0.0 0.0 0.00 0.00 0.00 1014.6
20260901114504 0 0.0 0.0 0.00 0.00 0.00 1014.6
20260901113102 0 0.0 0.0 0.00 0.00 0.00 1014.4
20260901111556 0 0.0 0.0 0.00 0.00 0.00 1014.3
20260901110053 0 0.0 0.0 0.00 0.00 0.00 1014.1
20260901104548 0 0.0 0.0 0.00 0.00 0.00 1014.0
20260901103048 0 0.0 0.0 0.00 0.00 0.00 1014.1
20260901101555 0 0.0 0.0 0.00 0.00 0.00 1014.0
20260901100036 0 0.0 0.0 0.00 0.00 0.00 1014.1
20260901094536 0 0.0 0.0 0.00 0.00 0.00 1014.1
20260901093028 0 0.0 0.0 0.00 0.00 0.00 1014.2
20260901091524 0 0.0 0.0 0.00 0.00 0.00 1014.2
20260901090019 0 0.0 0.0 0.00 0.00 0.00 1014.3
20260901084515 0 0.0 0.0 0.00 0.00 0.00 1014.1
20260901083017 82 82 0.0 3.0 0.00 0.00 0.00 62 1014.1
20260901081509 82 266 0.0 3.0 0.00 0.00 0.00 62 1014.1
20260901080005 81 176 0.0 1.0 0.00 0.00 0.00 62 1014.0
20260901074501 80 148 0.0 0.0 0.00 0.00 0.00 63 1014.0
20260901073058 79 148 0.0 0.0 0.00 0.00 0.00 65 1013.9
20260901071559 78 148 0.0 0.0 0.00 0.00 0.00 66 1013.7
20260901070106 77 148 0.0 0.0 0.00 0.00 0.00 68 1013.7
20260901064553 77 148 0.0 0.0 0.00 0.00 0.00 71 1013.6
20260901063105 77 148 0.0 0.0 0.00 0.00 0.00 69 1013.5
20260901061551 77 148 0.0 0.0 0.00 0.00 0.00 69 1013.5
20260901060047 77 148 0.0 0.0 0.00 0.00 0.00 68 1013.3
20260901054545 78 148 0.0 0.0 0.00 0.00 0.00 67 1013.1
20260901053105 78 148 0.0 0.0 0.00 0.00 0.00 65 1012.9
20260901051557 78 148 0.0 0.0 0.00 0.00 0.00 63 1012.7
20260901050038 79 148 0.0 0.0 0.00 0.00 0.00 65 1012.6
20260901044537 79 148 0.0 0.0 0.00 0.00 0.00 62 1012.6
20260901043040 79 148 0.0 0.0 0.00 0.00 0.00 66 1012.6
20260901041551 79 148 0.0 0.0 0.00 0.00 0.00 62 1012.7
20260901040036 79 148 0.0 0.0 0.00 0.00 0.00 62 1012.6
20260901034536 80 148 0.0 0.0 0.00 0.00 0.00 62 1012.7
20260901033035 81 148 0.0 0.0 0.00 0.00 0.00 61 1012.6
20260901031550 81 148 0.0 0.0 0.00 0.00 0.00 58 1012.6
20260901030034 82 148 0.0 0.0 0.00 0.00 0.00 57 1012.5
20260901024533 83 148 0.0 0.0 0.00 0.00 0.00 53 1012.3
20260901023035 84 148 0.0 0.0 0.00 0.00 0.00 52 1012.1
20260901021535 85 148 0.0 0.0 0.00 0.00 0.00 50 1011.9
20260901020032 86 148 0.0 0.0 0.00 0.00 0.00 48 1011.8
20260901014542 88 148 0.0 0.0 0.00 0.00 0.00 45 1011.6
20260901013031 89 259 0.0 0.0 0.00 0.00 0.00 42 1011.5
20260901011530 90 258 0.0 0.0 0.00 0.00 0.00 40 1011.4
20260901010030 92 132 0.0 0.0 0.00 0.00 0.00 39 1011.3
20260901004529 93 248 0.0 0.0 0.00 0.00 0.00 39 1011.3
20260901003032 94 250 0.0 1.0 0.00 0.00 0.00 36 1011.3
20260901001536 94 218 0.0 1.0 0.00 0.00 0.00 35 1011.3
20260901000027 95 221 0.0 2.0 0.00 0.00 0.00 34 1011.2
20260831234530 96 139 0.0 3.0 0.00 0.00 0.00 33 1011.2
20260831233026 96 66 1.0 5.0 0.00 0.00 0.00 33 1011.3
20260831231526 97 98 0.0 4.0 0.00 0.00 0.00 33 1011.2
20260831230026 97 158 1.0 4.0 0.00 0.00 0.00 33 1011.2
20260831224525 97 253 1.0 5.0 0.00 0.00 0.00 33 1011.3
20260831223023 97 248 1.0 6.0 0.00 0.00 0.00 33 1011.4
20260831221523 97 119 0.0 6.0 0.00 0.00 0.00 32 1011.5
20260831220020 97 239 1.0 6.0 0.00 0.00 0.00 33 1011.6
20260831214523 98 129 0.0 4.0 0.00 0.00 0.00 33 1011.8
20260831213017 99 113 0.0 6.0 0.00 0.00 0.00 32 1011.9
20260831211519 99 288 1.0 7.0 0.00 0.00 0.00 32 1012.0
20260831210014 99 105 0.0 6.0 0.00 0.00 0.00 32 1012.2
20260831204519 98 165 0.0 8.0 0.00 0.00 0.00 33 1012.5
20260831203020 97 150 0.0 4.0 0.00 0.00 0.00 34 1012.7
20260831201513 98 271 1.0 10.0 0.00 0.00 0.00 34 1012.9
20260831200012 99 245 1.0 7.0 0.00 0.00 0.00 32 1012.9
20260831194507 98 135 2.0 6.0 0.00 0.00 0.00 34 1013.0
20260831193007 98 160 1.0 6.0 0.00 0.00 0.00 34 1013.5